Wetbulb
62.55 61.81 60.52 59.08 57.87 57.08 56.59 56.14 56.06 55.59 55.51 55.62 55.75 55.80 55.55 54.63 53.94 54.30 55.10 53.56 53.20 53.48 53.73 53.70 54.03 54.02 50.14 43.11 42.64 52.00 53.79 56.12 55.01 51.73 48.22 48.46 47.85 47.55 44.37 46.41 48.24 46.48 47.98 50.89 52.98 53.25 53.31
63.76 62.90 61.68 59.79 58.18 57.28 56.80 56.18 55.97 55.77 55.58 55.47 55.52 55.58 55.18 54.81 54.25 53.43 54.33 54.56 53.63 53.62 53.73 53.93 53.83 53.59 46.81 37.51 49.24 51.95 51.30 51.91 51.55 50.41 47.05 49.37 48.74 50.22 47.31 46.27 46.02 45.23 48.54 50.87 51.51 51.58 51.82
64.27 63.83 62.55 60.58 58.87 57.59 56.83 56.09 55.59 55.21 55.37 55.36 55.23 55.07 54.79 54.46 54.18 53.20 53.27 54.22 54.57 53.58 53.59 54.11 53.23 50.56 44.59 41.98 49.70 51.56 51.15 50.47 51.37 49.73 46.21 50.20 49.34 48.94 49.00 45.08 49.81 47.58 43.84 48.78 49.36 50.30 49.21
64.27 64.25 63.57 61.38 59.63 57.85 56.94 56.13 55.45 54.99 55.11 55.29 55.20 54.79 54.27 53.85 53.74 53.18 52.84 53.46 53.71 54.10 53.85 53.89 52.92 48.79 40.63 50.16 50.45 50.27 50.63 49.27 51.63 50.79 48.27 49.77 50.24 49.07 48.04 49.74 47.62 43.58 43.07 40.49 47.11 48.60 49.00
64.07 64.39 64.23 61.80 60.26 58.33 57.22 56.35 55.53 54.81 54.82 54.20 53.81 53.85 53.74 53.00 52.90 52.68 51.95 53.07 53.25 53.93 53.52 53.29 48.90 46.20 39.29 50.26 46.95 49.70 50.34 46.64 49.23 49.21 49.35 50.18 49.31 47.35 48.12 43.16 40.46 42.62 34.89 38.05 42.04 48.33 47.79
64.14 64.20 63.70 62.01 60.42 58.62 57.60 56.46 55.63 54.80 54.81 54.15 53.88 53.71 52.93 52.33 52.37 51.76 52.84 53.08 53.15 52.38 51.50 51.12 49.33 42.09 44.30 41.97 45.75 46.80 49.82 48.99 46.61 46.40 45.42 44.25 45.85 42.75 43.21 40.74 33.07 35.65 37.21 37.32 38.17 43.97 45.74
63.84 64.00 63.28 62.43 60.58 58.70 57.58 56.39 55.61 54.52 54.44 54.01 53.35 52.85 52.50 51.99 51.40 51.33 51.74 50.15 44.51 42.33 45.33 42.24 42.76 42.70 44.64 45.30 47.14 44.73 48.19 46.54 46.53 42.78 36.33 40.25 37.97 37.53 40.56 42.02 42.19 38.86 38.89 38.22 41.48 46.07 43.42
63.26 63.51 63.36 62.79 60.69 58.97 57.36 56.29 55.36 54.55 54.12 53.67 52.63 52.44 52.13 51.27 51.35 52.19 50.18 45.28 45.19 45.55 38.89 46.59 45.74 45.84 46.98 45.95 40.45 43.60 48.54 41.80 41.08 36.44 39.01 38.93 35.42 41.63 44.50 43.69 42.51 40.67 38.27 38.40 42.28 45.68 42.69
60.67 63.02 63.24 62.93 60.65 59.22 57.30 56.18 55.16 54.38 53.82 53.05 52.44 51.63 51.60 51.49 51.35 50.15 47.80 45.88 50.97 49.16 39.78 42.83 45.37 44.03 44.12 46.27 40.81 41.32 45.75 43.31 40.00 37.48 38.22 36.84 40.08 44.12 42.39 41.88 39.86 38.30 37.46 37.81 38.76 43.29 44.97
59.06 59.63 62.77 62.67 60.82 59.04 57.13 55.88 54.74 53.94 53.20 52.29 51.81 51.53 50.66 51.36 47.43 49.60 45.60 49.35 51.06 49.96 34.81 37.67 40.93 43.79 46.21 46.12 40.39 47.74 48.15 44.78 41.31 38.40 39.40 39.41 43.57 42.07 40.36 40.28 40.62 35.60 42.41 42.13 41.30 38.07 33.39
58.13 58.74 60.81 62.16 60.75 58.84 56.92 55.53 54.41 53.52 52.53 51.83 51.32 50.87 50.58 50.96 47.75 45.71 48.02 50.42 50.54 46.91 24.29 39.25 41.16 49.39 47.21 42.07 42.46 43.17 50.14 45.87 39.69 39.96 40.31 37.60 40.38 40.42 39.28 40.94 43.16 39.32 43.46 41.79 41.46 38.67 36.93
57.35 58.19 58.02 61.69 60.59 58.42 56.59 55.16 54.05 53.03 52.05 51.38 50.74 50.75 51.17 48.76 49.07 49.94 50.79 50.45 47.53 32.53 20.42 34.82 41.84 40.66 39.79 42.14 42.39 44.93 45.07 47.95 46.64 41.08 41.17 40.28 45.35 43.19 41.28 43.67 43.65 43.85 41.63 40.40 39.09 36.57 27.75
56.12 56.25 57.53 58.26 59.79 58.11 56.13 54.63 53.69 52.49 51.65 50.32 50.07 50.81 50.32 50.75 46.23 51.45 50.36 46.09 33.00 28.29 37.02 33.88 36.80 39.96 38.34 37.22 39.15 40.90 39.79 38.47 36.31 31.06 32.39 38.37 39.82 43.36 44.32 39.48 42.61 41.48 36.82 27.41 24.67 24.01 23.84
55.48 55.72 56.40 55.33 59.38 57.57 55.79 54.23 53.31 52.19 51.23 49.92 49.98 51.04 50.14 50.69 51.88 51.43 48.25 38.51 27.96 33.93 34.89 40.43 39.82 39.43 35.32 37.98 37.63 38.52 37.80 35.84 39.96 37.91 34.93 32.42 30.57 39.74 42.83 39.99 36.51 36.93 35.64 28.06 21.41 22.16 24.90
54.87 55.01 55.14 55.11 58.95 57.14 55.46 54.00 52.88 51.80 50.88 49.98 50.81 49.22 48.94 50.61 51.79 50.19 42.28 31.55 33.11 35.06 39.23 37.64 39.17 35.22 34.75 37.59 37.91 37.18 37.50 37.09 38.48 39.72 34.57 33.05 32.82 41.64 42.79 43.01 41.54 36.32 31.23 36.61 30.52 29.09 24.32
52.87 54.59 54.87 55.30 58.64 56.76 55.17 53.81 52.47 51.39 50.75 50.57 47.81 47.23 46.86 51.47 51.43 47.43 38.58 34.17 36.09 41.47 42.18 40.76 34.81 38.21 33.43 35.37 34.86 35.54 35.78 39.71 39.10 42.04 41.66 38.48 30.73 39.06 40.94 43.53 42.69 39.96 40.53 29.29 29.85 20.53 20.75
52.81 54.18 53.98 54.20 57.69 56.16 54.60 53.47 52.20 51.34 50.71 50.56 47.27 42.10 47.89 51.31 49.73 42.48 33.63 35.96 39.70 42.90 43.67 39.76 37.91 37.14 37.42 35.18 36.34 34.76 35.37 39.43 42.25 41.88 40.82 39.16 34.72 35.31 38.87 37.00 36.73 37.30 34.22 35.69 34.46 30.18 22.40
51.01 50.48 53.45 54.38 54.89 55.28 53.98 52.76 51.82 51.23 50.32 48.83 46.35 38.86 48.80 49.07 39.35 40.68 35.85 39.77 41.52 41.64 43.85 41.94 41.32 40.56 38.54 38.88 36.54 36.71 35.35 38.90 43.34 42.48 36.65 40.40 36.60 30.35 33.72 40.74 42.34 39.93 36.59 36.01 28.59 26.50 27.29
49.87 50.58 52.18 52.95 55.36 54.36 53.01 52.29 51.63 51.05 50.66 47.75 42.69 41.27 47.47 47.01 33.82 34.68 39.23 40.11 42.05 40.96 41.37 40.66 39.91 41.45 41.75 39.32 35.28 38.10 38.83 43.48 43.79 41.66 38.92 38.52 33.68 28.23 27.57 33.85 37.84 35.64 38.44 39.36 37.22 35.01 27.71
49.27 49.61 50.87 52.40 55.06 53.47 51.99 51.75 51.36 50.94 51.53 48.27 42.28 35.53 41.55 42.71 41.36 37.75 36.95 37.69 38.18 43.29 41.96 41.88 40.98 41.85 39.59 37.95 39.95 36.66 37.65 41.09 43.77 42.69 43.94 41.94 36.18 31.47 28.84 30.42 35.44 31.79 36.00 38.03 35.49 28.08 30.25
48.55 48.72 50.36 50.84 54.62 52.83 51.36 51.02 51.09 51.42 51.43 47.39 43.72 39.21 40.24 33.76 35.80 37.51 39.71 39.70 37.33 37.04 41.70 41.93 39.06 40.07 38.78 36.13 36.80 36.88 39.14 40.08 42.31 42.79 41.15 39.75 31.49 29.02 33.31 36.00 36.17 34.53 34.84 35.60 32.59 34.16 28.25
47.98 48.33 48.95 49.80 54.24 52.41 50.97 50.67 50.87 51.18 50.63 45.00 39.87 39.39 40.50 39.43 39.83 37.21 38.50 37.75 37.47 39.37 39.43 37.90 37.28 40.21 39.57 37.41 37.58 36.06 38.66 38.24 37.71 39.88 39.59 40.57 30.63 30.75 27.31 33.75 33.33 29.96 34.95 35.58 36.03 36.41 35.39
46.78 48.07 48.09 53.43 53.70 51.62 50.61 50.39 50.85 50.69 49.52 43.63 41.30 42.56 40.72 39.43 37.84 36.25 37.25 38.89 39.09 41.20 41.90 42.63 40.59 38.75 37.96 38.40 39.70 40.33 41.66 42.13 41.92 38.85 37.61 37.82 33.73 29.07 26.48 30.43 29.40 25.53 31.59 33.84 35.27 36.85 35.91
46.56 47.73 47.68 48.93 52.91 51.18 50.38 50.10 50.61 49.77 49.88 44.31 41.90 42.61 38.11 33.60 36.69 37.12 39.76 40.55 40.15 40.64 39.26 42.02 42.28 39.15 41.23 44.29 42.05 41.01 39.73 40.39 41.09 39.04 42.12 37.08 35.40 32.02 26.19 25.56 16.02 31.35 36.14 36.48 35.64 37.44 38.17
46.54 47.73 47.50 48.47 49.93 51.04 50.38 49.96 49.41 50.34 50.59 43.17 42.19 41.56 38.29 33.82 36.34 37.05 38.26 39.18 39.39 40.22 40.97 40.89 41.84 41.76 43.81 40.74 36.25 33.86 33.27 33.94 36.23 37.41 36.84 38.75 37.41 30.99 25.96 25.07 29.84 30.98 33.75 33.69 32.26 33.18 38.29
46.53 47.25 48.06 49.02 49.93 50.78 50.19 49.72 48.78 50.63 48.75 42.81 41.55 40.94 38.27 35.53 31.53 37.22 36.30 38.26 35.71 36.75 38.07 39.41 41.92 44.41 42.74 38.79 35.88 29.81 25.90 30.01 29.91 32.49 37.17 37.98 38.47 31.61 28.42 22.33 21.04 31.49 36.74 39.21 37.45 28.50 39.07
46.32 46.13 47.57 51.67 51.45 50.22 49.64 49.28 48.19 50.10 48.65 43.60 40.44 41.76 40.32 32.89 33.18 34.47 33.83 33.90 35.83 36.63 36.43 38.36 38.65 39.94 41.65 36.86 31.59 29.21 28.31 33.70 28.46 28.19 29.58 30.68 30.79 26.99 28.05 26.01 28.72 36.02 37.64 38.98 24.36 30.77 39.19
45.82 46.09 49.38 51.37 50.32 49.59 49.02 48.07 47.85 49.23 46.92 44.36 39.94 42.53 40.04 33.77 33.55 36.84 37.23 33.59 34.01 34.13 34.02 34.05 37.05 37.51 36.98 33.41 33.21 30.87 29.66 30.90 28.80 32.71 30.88 29.43 27.25 27.64 28.60 25.86 21.89 36.93 35.92 30.80 35.27 38.77 38.81
45.46 46.26 47.31 50.11 50.00 49.04 48.23 47.67 47.14 46.57 46.42 45.92 38.25 42.43 42.14 36.07 33.63 37.20 37.15 37.42 36.44 36.70 34.41 36.51 35.74 35.18 36.78 34.84 33.62 33.73 29.86 30.61 29.87 26.14 33.16 28.02 32.46 30.39 31.53 30.07 36.98 37.63 37.77 38.61 38.09 36.54 36.04
MSLP
1020.84 1020.78 1020.72 1020.67 1020.73 1020.65 1020.64 1020.03 1020.22 1020.14 1019.84 1019.35 1019.06 1018.76 1018.56 1018.34 1018.07 1017.69 1017.34 1017.13 1016.96 1016.69 1016.39 1016.26 1016.01 1015.80 1015.45 1014.12 1013.30 1013.11 1013.13 1013.20 1013.07 1013.66 1013.75 1013.57 1012.88 1012.53 1012.06 1011.69 1012.62 1012.65 1011.99 1011.70 1010.95 1009.35 1009.67
1020.11 1020.20 1020.22 1020.23 1020.31 1020.25 1020.31 1019.83 1019.79 1020.05 1019.70 1019.00 1018.81 1018.41 1018.31 1018.10 1017.81 1017.54 1017.22 1016.86 1016.72 1016.42 1016.23 1016.07 1015.83 1015.70 1015.19 1014.06 1013.15 1013.19 1013.35 1013.28 1013.60 1013.77 1013.62 1014.03 1013.08 1012.35 1011.99 1011.49 1012.10 1012.59 1013.42 1012.11 1010.55 1009.95 1010.48
1019.52 1019.22 1019.39 1019.63 1019.70 1019.89 1019.72 1019.62 1019.39 1019.45 1019.56 1018.93 1018.51 1018.20 1018.00 1017.88 1017.55 1017.34 1017.04 1016.65 1016.37 1016.22 1016.10 1015.85 1015.68 1015.46 1014.73 1013.78 1013.20 1013.43 1013.27 1013.59 1014.00 1014.15 1014.48 1014.29 1014.17 1013.36 1011.60 1011.10 1011.56 1012.59 1013.72 1013.60 1012.28 1011.85 1011.97
1019.14 1018.62 1018.33 1018.74 1019.06 1019.15 1019.40 1019.31 1019.24 1019.10 1019.16 1018.83 1018.21 1018.05 1017.67 1017.62 1017.36 1017.14 1016.81 1016.48 1016.15 1015.99 1015.76 1015.60 1015.63 1015.28 1014.12 1013.53 1013.57 1013.49 1013.35 1013.48 1014.09 1014.50 1014.60 1014.76 1014.17 1013.46 1012.34 1010.37 1011.94 1013.54 1014.96 1013.77 1012.90 1013.28 1012.70
1018.44 1018.09 1017.52 1017.95 1018.31 1018.51 1018.75 1018.79 1018.68 1018.74 1018.71 1018.53 1018.10 1017.86 1017.48 1017.41 1017.21 1016.91 1016.59 1016.19 1015.78 1015.61 1015.36 1015.39 1015.33 1014.86 1013.88 1013.70 1013.79 1014.05 1013.72 1013.53 1014.00 1014.48 1014.01 1014.03 1013.76 1012.76 1010.93 1011.21 1011.36 1013.14 1013.87 1012.80 1012.86 1013.48 1013.78
1017.64 1017.43 1016.98 1017.40 1017.67 1017.87 1018.11 1018.25 1018.16 1018.23 1018.39 1018.08 1017.89 1017.60 1017.30 1017.21 1016.94 1016.71 1016.28 1015.72 1015.24 1015.30 1014.94 1014.64 1014.28 1014.62 1013.96 1014.24 1014.56 1014.35 1013.96 1013.69 1013.94 1013.99 1014.20 1014.27 1013.80 1012.74 1010.71 1010.43 1010.96 1012.31 1012.49 1012.88 1013.44 1014.03 1014.10
1016.93 1016.84 1016.77 1016.85 1016.91 1017.16 1017.48 1017.61 1017.67 1017.86 1018.00 1017.69 1017.55 1017.40 1017.07 1016.99 1016.71 1016.52 1016.04 1014.96 1015.21 1015.13 1014.39 1013.54 1013.36 1013.33 1013.90 1015.29 1015.08 1014.22 1013.58 1013.86 1014.31 1014.66 1014.53 1014.44 1013.51 1011.66 1010.13 1010.03 1010.31 1012.04 1012.62 1012.76 1012.85 1012.84 1013.11
1016.67 1016.09 1016.02 1016.10 1016.37 1016.55 1016.86 1017.11 1017.10 1017.41 1017.50 1017.33 1017.12 1017.11 1016.86 1016.73 1016.57 1016.34 1016.04 1015.06 1014.82 1015.20 1014.01 1012.87 1013.10 1013.40 1013.93 1014.43 1014.41 1013.86 1013.71 1013.72 1014.14 1014.23 1014.47 1014.11 1013.02 1011.10 1010.17 1009.79 1009.77 1009.99 1011.45 1012.35 1012.48 1012.55 1013.01
1016.48 1015.69 1015.20 1015.23 1015.53 1015.75 1016.08 1016.44 1016.68 1016.88 1017.04 1016.95 1016.82 1016.73 1016.66 1016.53 1016.42 1016.18 1015.36 1014.85 1014.93 1014.86 1014.34 1012.96 1013.01 1013.18 1013.75 1013.93 1013.60 1013.91 1013.82 1013.67 1013.80 1014.10 1013.74 1013.17 1012.48 1011.46 1010.58 1009.61 1009.81 1009.77 1010.24 1011.36 1012.45 1013.16 1012.62
1016.17 1015.61 1014.54 1014.46 1014.82 1014.99 1015.50 1015.72 1016.23 1016.36 1016.57 1016.58 1016.50 1016.41 1016.48 1016.40 1016.64 1015.16 1014.91 1014.87 1015.04 1015.01 1014.42 1013.16 1012.64 1012.86 1013.26 1013.34 1013.78 1013.74 1013.86 1013.26 1013.71 1013.67 1013.31 1013.05 1012.46 1011.55 1011.13 1010.10 1009.21 1009.40 1009.63 1010.35 1011.34 1012.05 1011.89
1015.86 1015.07 1014.33 1013.55 1013.88 1014.33 1014.81 1015.19 1015.72 1015.91 1016.08 1016.13 1016.13 1016.08 1016.25 1016.24 1015.98 1015.05 1015.21 1015.02 1015.05 1015.07 1014.23 1013.07 1012.41 1012.40 1012.47 1012.97 1013.65 1013.67 1012.92 1012.67 1013.08 1013.22 1013.07 1013.64 1012.64 1011.91 1011.10 1009.99 1009.52 1010.01 1010.00 1010.53 1011.59 1012.08 1012.03
1015.45 1014.62 1014.11 1012.71 1012.96 1013.38 1013.91 1014.51 1015.11 1015.39 1015.67 1015.66 1015.73 1015.77 1015.92 1016.11 1015.90 1015.12 1015.12 1015.15 1015.16 1015.05 1013.72 1012.90 1012.30 1012.34 1012.44 1012.55 1012.82 1012.99 1012.61 1012.55 1012.52 1012.75 1013.40 1013.64 1013.20 1012.93 1012.49 1010.98 1010.46 1010.76 1011.13 1011.99 1012.44 1012.88 1013.32
1014.90 1014.10 1013.49 1012.84 1011.86 1012.74 1013.49 1013.83 1014.47 1014.87 1015.19 1015.29 1015.39 1015.42 1015.62 1015.27 1015.27 1015.14 1015.20 1015.14 1014.98 1014.08 1013.52 1012.63 1011.89 1011.88 1012.17 1012.77 1012.81 1012.76 1012.49 1012.66 1012.58 1013.31 1013.99 1014.04 1013.71 1013.40 1012.87 1011.86 1011.58 1011.62 1012.16 1013.26 1014.09 1014.68 1014.45
1014.36 1013.57 1012.75 1012.24 1010.88 1011.78 1012.74 1013.13 1013.87 1014.41 1014.75 1014.99 1015.19 1015.35 1015.30 1015.11 1015.11 1015.17 1015.19 1014.91 1014.03 1012.97 1012.16 1011.81 1011.58 1011.89 1012.02 1012.18 1012.55 1012.80 1012.45 1012.58 1013.06 1013.21 1013.88 1014.36 1014.58 1013.95 1013.36 1012.72 1012.45 1012.41 1012.41 1013.25 1014.18 1014.65 1014.43
1013.60 1012.65 1012.16 1011.32 1009.76 1010.66 1011.87 1012.57 1013.27 1013.89 1014.35 1014.68 1015.05 1015.24 1015.02 1015.14 1015.22 1015.33 1015.16 1014.26 1012.91 1011.94 1011.32 1011.20 1011.54 1011.76 1011.84 1011.98 1012.79 1012.71 1012.42 1012.22 1012.76 1012.98 1013.24 1013.97 1014.55 1014.54 1014.10 1013.69 1013.39 1012.96 1013.00 1013.55 1014.03 1013.98 1013.88
1013.00 1011.80 1011.25 1010.40 1009.12 1009.74 1011.08 1012.09 1013.01 1013.39 1013.88 1014.30 1014.63 1014.77 1014.86 1015.08 1015.40 1015.24 1014.86 1013.27 1012.22 1011.34 1010.68 1010.79 1010.79 1010.96 1011.21 1011.85 1012.18 1012.75 1012.41 1012.04 1012.17 1012.41 1012.61 1012.96 1014.16 1014.71 1014.60 1014.10 1013.52 1013.30 1013.19 1013.69 1014.13 1014.74 1014.35
1012.03 1011.05 1010.43 1010.21 1008.76 1008.77 1010.23 1011.48 1012.59 1012.91 1013.45 1013.92 1014.23 1014.43 1014.90 1015.10 1015.50 1015.11 1014.07 1012.70 1011.71 1011.30 1010.90 1010.69 1010.23 1010.15 1010.44 1011.37 1011.81 1012.31 1012.24 1012.47 1011.89 1012.21 1012.37 1012.49 1013.41 1014.99 1014.73 1014.25 1013.61 1013.68 1013.55 1013.99 1014.47 1015.07 1014.96
1011.81 1010.87 1009.77 1008.85 1009.61 1007.91 1009.33 1010.83 1012.18 1012.34 1013.10 1013.77 1013.54 1014.21 1014.90 1015.27 1015.37 1014.15 1013.16 1012.09 1011.61 1011.12 1011.10 1010.72 1010.49 1010.27 1010.09 1010.65 1011.30 1011.45 1012.04 1012.17 1011.95 1012.14 1012.47 1012.65 1013.64 1014.57 1014.71 1014.37 1014.11 1013.95 1013.83 1014.13 1014.66 1015.44 1015.13
1011.32 1010.61 1009.42 1008.02 1006.21 1007.17 1008.63 1010.20 1011.66 1011.83 1012.16 1012.29 1012.95 1014.20 1015.26 1015.15 1014.40 1013.53 1012.60 1011.82 1011.34 1011.01 1010.85 1010.67 1010.25 1010.09 1009.87 1010.15 1010.77 1011.34 1011.89 1012.22 1012.10 1012.31 1012.58 1012.79 1013.65 1014.66 1015.05 1014.98 1014.44 1014.35 1014.02 1014.08 1014.51 1015.04 1015.34
1010.83 1010.13 1008.91 1007.11 1006.04 1006.65 1007.93 1009.70 1010.81 1011.30 1011.37 1011.70 1012.42 1013.57 1014.75 1014.90 1013.81 1012.94 1011.99 1011.22 1011.08 1011.04 1010.63 1010.60 1010.31 1010.19 1010.05 1010.11 1010.45 1011.21 1011.96 1012.47 1012.57 1012.63 1012.94 1013.13 1013.54 1014.03 1014.36 1013.84 1013.59 1014.02 1013.84 1014.09 1014.68 1015.56 1015.08
1009.92 1009.50 1008.13 1007.77 1006.39 1006.03 1007.46 1008.97 1010.08 1010.69 1011.18 1011.83 1011.35 1011.78 1012.22 1013.20 1012.95 1012.49 1011.53 1010.60 1010.49 1010.70 1010.84 1010.68 1010.54 1010.32 1010.26 1010.59 1010.78 1011.14 1011.88 1012.50 1012.87 1012.99 1013.26 1013.59 1014.06 1014.45 1014.56 1014.32 1013.99 1013.80 1013.81 1013.97 1014.20 1014.35 1014.53
1009.23 1008.75 1008.07 1006.88 1005.78 1005.73 1006.97 1008.47 1009.48 1010.25 1011.10 1011.53 1010.76 1010.78 1011.47 1010.90 1011.32 1011.86 1011.33 1010.60 1010.13 1010.26 1010.39 1010.52 1010.50 1010.40 1010.48 1011.04 1011.24 1011.23 1011.59 1012.10 1012.45 1013.19 1013.45 1014.01 1014.61 1015.04 1015.27 1014.81 1014.57 1014.35 1014.01 1013.73 1013.60 1013.70 1013.71
1009.84 1008.45 1007.39 1004.17 1004.96 1005.36 1006.60 1007.86 1008.90 1009.72 1010.37 1010.43 1010.36 1010.26 1010.48 1010.78 1011.09 1011.33 1010.67 1010.09 1010.03 1010.32 1010.76 1010.40 1010.54 1010.82 1011.18 1011.82 1011.69 1011.61 1011.49 1011.58 1011.80 1012.83 1013.38 1013.83 1014.70 1015.54 1015.66 1015.32 1015.03 1014.58 1013.38 1013.24 1013.19 1012.98 1013.03
1009.14 1008.10 1006.99 1006.20 1005.91 1005.32 1006.28 1007.59 1008.44 1009.03 1009.22 1009.14 1009.48 1009.69 1010.30 1010.74 1010.93 1010.76 1010.01 1010.33 1010.38 1010.74 1010.86 1011.16 1011.27 1011.33 1012.36 1012.08 1011.86 1011.88 1011.85 1011.94 1012.20 1012.62 1012.93 1013.76 1014.69 1015.36 1015.97 1015.86 1015.01 1013.51 1012.91 1012.67 1012.58 1012.61 1012.62
1008.40 1007.15 1006.86 1006.91 1007.43 1006.32 1006.24 1007.51 1008.17 1008.71 1009.22 1009.40 1009.55 1009.70 1009.80 1010.35 1010.78 1010.86 1010.88 1010.97 1011.30 1011.50 1011.57 1011.98 1012.41 1012.63 1012.47 1012.36 1012.29 1012.46 1012.80 1012.81 1012.80 1013.03 1013.31 1013.65 1014.92 1015.50 1015.78 1015.48 1014.28 1013.66 1013.16 1012.96 1012.86 1012.77 1012.60
1007.44 1006.58 1005.78 1004.99 1004.76 1005.90 1006.80 1007.28 1008.04 1008.57 1009.35 1009.55 1009.92 1010.03 1010.00 1010.44 1011.89 1011.43 1011.59 1011.67 1011.86 1011.97 1012.49 1013.00 1013.17 1012.94 1012.79 1012.73 1012.63 1012.59 1012.61 1012.44 1013.14 1013.72 1013.85 1014.06 1014.42 1015.41 1015.63 1015.43 1014.35 1013.51 1013.13 1012.97 1013.08 1013.40 1013.32
1007.16 1006.48 1004.39 1002.35 1003.78 1005.27 1006.82 1007.43 1007.95 1008.44 1009.26 1009.65 1010.43 1010.48 1010.37 1011.60 1013.03 1012.70 1012.57 1012.58 1012.58 1012.38 1012.81 1013.40 1013.60 1013.60 1013.49 1013.49 1013.51 1013.14 1013.10 1012.84 1013.08 1013.34 1014.00 1014.43 1014.71 1015.18 1015.37 1015.02 1014.07 1013.27 1013.26 1013.28 1013.85 1014.76 1014.10
1006.43 1006.05 1003.96 1003.16 1003.83 1005.31 1006.82 1007.46 1008.00 1008.44 1009.26 1009.65 1010.82 1010.80 1010.67 1012.44 1014.12 1013.82 1013.75 1013.61 1013.60 1013.45 1013.71 1014.39 1014.60 1014.56 1014.65 1014.51 1014.25 1013.80 1013.52 1013.40 1013.22 1013.30 1013.57 1013.91 1014.54 1014.68 1014.92 1014.99 1014.57 1013.63 1013.77 1014.23 1014.77 1014.67 1014.90
1006.27 1005.40 1005.49 1005.41 1005.19 1005.97 1007.00 1007.77 1008.25 1008.58 1009.27 1009.64 1010.70 1010.67 1010.83 1012.49 1014.87 1015.16 1015.32 1015.25 1015.20 1015.10 1014.80 1014.93 1015.35 1015.48 1015.77 1015.64 1015.15 1014.55 1014.09 1013.97 1013.73 1013.90 1013.70 1014.10 1014.00 1014.35 1014.24 1014.20 1013.94 1013.90 1014.24 1014.72 1015.08 1015.40 1015.56
Wind_Speed
16 14 13 12 11 10 11 11 13 12 13 14 14 16 13 13 14 16 13 10 11 11 11 12 13 13 10 6 4 7 8 9 8 3 7 8 11 12 14 15 12 7 11 12 5 19 16
18 16 15 13 12 11 12 12 12 14 14 13 15 15 13 13 13 15 15 11 12 12 12 12 13 10 10 9 5 10 9 1 3 3 2 9 4 11 11 14 15 8 11 14 3 5 3
19 19 16 14 13 12 13 12 12 12 15 13 14 15 14 14 13 14 15 14 13 12 12 12 10 7 10 9 3 4 5 5 3 3 9 4 7 6 8 15 12 10 4 6 4 3 6
21 19 19 15 15 12 13 13 13 12 13 14 14 15 14 13 14 13 15 14 14 14 13 12 8 10 6 4 4 8 7 2 2 7 4 11 7 7 5 6 17 13 9 9 10 9 4
21 22 18 16 15 13 14 14 12 11 12 13 13 15 13 13 15 14 15 14 15 14 12 9 6 9 6 2 3 8 6 6 5 3 0 6 3 5 10 13 8 8 5 4 7 6 3
19 20 12 17 16 15 15 14 12 10 12 13 12 14 12 14 14 14 16 16 13 9 8 9 8 6 5 3 0 6 9 3 2 3 4 4 1 5 6 12 11 5 6 5 8 8 5
19 16 14 17 18 16 15 14 12 10 12 12 11 12 12 12 13 13 11 7 4 4 7 6 8 10 9 3 4 6 4 4 4 2 2 3 2 6 13 12 10 18 6 12 13 10 8
23 18 18 18 19 16 15 15 12 11 11 11 10 12 11 13 13 13 5 5 5 1 7 5 6 6 2 4 2 5 3 5 3 2 7 2 7 10 11 12 3 12 19 9 8 10 10
24 24 19 16 20 18 17 16 13 11 10 10 10 10 10 12 10 6 7 4 2 5 5 3 2 3 0 2 4 6 5 3 2 5 3 4 6 5 5 4 10 5 7 11 8 4 14
26 27 22 16 20 19 17 16 13 10 9 8 9 9 10 10 5 2 2 5 1 3 2 3 2 3 3 3 4 1 10 2 3 6 5 6 1 7 4 11 5 9 5 11 15 9 3
28 27 29 16 20 20 18 16 14 10 8 7 9 7 9 4 7 3 3 2 1 2 1 2 3 1 1 4 8 3 5 3 6 7 1 2 0 6 10 4 5 6 7 7 7 5 5
29 26 28 18 20 20 20 17 15 11 8 5 6 8 5 3 4 1 1 1 3 2 1 1 1 3 4 6 4 5 3 3 6 7 9 4 4 6 6 8 7 4 9 9 6 3 3
30 26 28 27 22 22 20 18 15 11 8 3 5 4 6 2 2 3 2 3 1 2 3 1 3 2 5 4 4 3 6 4 2 5 5 6 4 3 3 7 2 5 8 3 3 2 4
33 27 25 37 24 23 22 20 17 13 9 5 3 6 3 1 2 2 2 1 1 4 4 2 5 4 2 2 4 3 6 5 4 4 3 2 2 3 4 3 2 4 7 4 4 5 5
31 25 27 32 26 25 23 20 18 15 11 8 8 2 2 3 2 2 3 2 3 3 5 8 10 1 2 1 1 2 2 5 6 3 2 4 3 2 3 4 4 4 2 1 2 1 4
32 27 26 26 26 26 23 20 18 16 14 15 4 3 3 4 1 3 1 3 2 3 1 11 2 5 4 6 4 1 5 2 6 5 3 6 5 2 2 4 2 2 3 2 4 2 2
32 31 24 28 24 26 25 22 20 18 16 15 3 4 4 4 2 3 2 3 2 4 3 1 5 5 6 7 5 4 4 2 1 6 2 3 5 3 4 3 6 2 2 2 2 2 2
32 33 29 26 28 27 26 23 21 20 17 11 3 3 4 3 3 3 3 3 2 8 4 2 4 3 5 7 8 5 6 1 5 7 3 4 4 4 3 3 3 5 3 6 4 3 2
32 33 35 33 19 27 27 25 22 22 23 5 4 4 1 2 4 4 4 3 4 6 6 4 3 4 4 7 3 7 5 2 2 6 1 2 3 4 3 2 4 5 6 6 3 4 2
31 36 35 34 25 29 28 26 24 24 26 1 4 5 3 3 4 4 5 6 6 2 2 1 1 2 3 4 0 6 5 2 2 2 5 4 3 1 2 1 3 5 9 8 5 3 5
30 37 34 35 24 30 29 27 26 23 20 3 3 5 7 6 7 9 6 6 9 5 3 4 4 6 4 4 5 5 5 8 3 4 2 4 2 4 2 4 4 1 6 9 10 8 5
35 38 37 42 29 31 30 27 25 22 17 3 4 4 1 4 3 12 8 7 9 6 6 6 3 7 3 3 6 5 11 5 4 4 4 5 2 3 3 1 2 2 6 7 9 10 10
30 36 38 22 29 31 29 27 25 23 17 4 1 1 1 5 6 7 8 8 8 9 1 4 2 3 3 6 4 5 5 2 6 7 6 5 4 3 1 1 3 6 9 11 6 6 6
30 33 36 33 19 28 27 26 24 24 19 1 3 3 3 4 6 8 3 5 8 4 4 4 3 2 2 3 4 3 3 4 6 3 3 3 4 3 1 2 1 4 4 5 3 5 6
31 32 32 31 27 23 26 24 23 25 22 1 1 2 2 4 5 4 7 6 7 3 6 7 5 3 2 3 3 5 2 2 4 3 2 1 4 1 2 3 3 4 1 2 3 4 2
32 34 39 44 25 26 22 23 22 23 18 2 2 1 1 5 3 2 6 8 5 5 4 3 3 3 2 3 1 3 5 5 5 4 2 3 3 1 2 1 3 5 5 3 1 2 5
30 36 46 17 29 26 22 20 19 20 18 3 2 2 1 5 4 7 3 2 3 3 3 5 3 2 3 2 2 3 2 3 6 6 5 2 2 4 4 3 6 7 6 1 1 3 6
30 31 26 25 27 26 23 18 20 21 18 5 2 1 2 5 5 7 6 2 2 3 3 3 4 0 2 2 2 1 2 4 2 4 6 6 5 4 4 3 6 3 4 1 1 6 7
27 26 23 7 22 23 21 20 22 22 17 6 3 3 8 7 5 7 9 8 6 6 1 3 3 4 2 1 1 2 0 2 2 3 3 2 2 2 2 3 2 5 8 6 6 4 4
Wind_Direction
274 271 270 274 279 287 294 297 303 311 316 322 323 326 329 324 325 319 316 306 307 307 314 311 308 307 321 308 0 70 2 44 94 157 181 275 213 206 225 194 173 204 257 246 347 164 156
274 266 261 264 269 274 281 290 298 307 308 319 320 324 330 319 317 320 314 305 301 307 312 316 318 315 278 289 16 35 346 43 122 117 190 295 281 238 221 217 179 131 269 237 295 46 44
281 269 252 252 254 262 271 280 289 300 305 314 316 321 326 317 316 319 311 310 309 304 306 307 314 293 282 268 358 48 336 29 124 105 187 275 352 321 255 219 148 183 300 220 178 50 2
285 277 249 233 245 249 265 270 281 294 303 310 321 321 323 321 318 316 312 304 301 303 296 290 296 291 263 60 346 350 352 143 108 118 80 295 341 284 238 195 162 141 198 232 129 189 27
289 290 273 225 235 240 251 262 272 288 296 306 318 317 327 324 321 317 306 301 291 290 287 266 257 223 283 354 0 343 332 298 115 166 229 304 310 262 218 203 154 172 169 236 94 123 103
287 294 231 231 227 232 244 256 266 279 291 301 310 315 322 319 322 317 310 292 278 293 242 240 246 285 222 306 193 278 279 277 60 88 147 12 230 251 212 177 179 129 217 171 234 157 117
283 284 236 236 225 224 236 250 260 272 287 296 312 315 319 323 319 312 314 298 210 188 237 253 316 304 13 82 257 222 239 161 98 9 78 310 190 221 176 193 166 146 143 156 219 182 134
289 275 258 240 226 221 226 244 251 262 278 293 309 312 319 320 316 311 287 280 66 354 302 222 294 50 64 169 113 162 215 187 169 74 134 141 210 238 168 201 239 190 169 184 9 162 191
319 287 270 258 217 220 219 234 243 253 271 289 303 308 321 320 318 286 254 358 19 332 262 148 60 84 242 294 113 150 210 220 112 141 205 129 141 203 323 185 192 153 185 132 140 210 220
314 317 273 251 218 215 217 226 234 241 260 279 293 308 317 318 287 236 223 89 301 327 284 61 136 103 177 136 52 280 188 176 67 122 59 64 342 184 160 225 232 142 153 143 158 164 183
312 306 294 241 214 213 212 218 224 230 245 267 287 307 305 254 314 235 55 112 331 232 229 17 81 57 24 86 143 340 206 220 134 63 25 68 59 203 172 130 7 68 53 81 120 199 19
309 308 316 253 216 207 208 208 215 217 234 257 289 300 281 191 238 23 150 245 239 251 146 315 112 155 132 125 107 145 190 61 143 59 16 73 41 17 331 35 62 102 84 66 34 6 358
295 310 310 299 199 205 207 204 204 204 218 216 300 268 175 200 359 130 189 232 196 299 256 215 153 131 74 111 89 106 147 144 134 89 3 53 15 106 303 75 70 151 133 85 53 27 214
299 304 303 334 199 199 204 198 195 194 194 160 183 163 181 231 174 127 231 230 205 166 193 166 132 104 75 21 74 51 148 106 51 61 112 83 131 51 327 1 169 195 202 133 188 181 174
291 298 317 327 198 192 199 197 188 183 172 160 164 205 196 137 124 252 250 196 137 187 158 163 152 120 87 291 93 27 312 139 146 223 128 135 93 149 333 342 337 241 28 27 352 221 76
317 292 298 303 209 188 189 190 186 177 165 163 173 179 104 140 103 248 250 291 194 331 107 171 235 184 148 167 164 338 200 104 128 164 210 138 106 285 102 288 266 305 150 71 3 68 234
331 312 305 301 239 181 180 181 180 177 171 174 211 153 126 116 221 226 205 243 225 169 307 282 245 149 144 150 161 216 179 9 179 163 342 274 112 132 109 233 182 172 121 257 160 169 179
326 322 317 304 293 176 171 173 183 175 167 156 188 137 122 158 221 225 222 177 309 157 197 287 297 193 171 147 179 175 176 349 227 145 207 73 92 154 149 21 46 331 230 207 129 238 255
328 318 319 315 246 166 163 172 183 177 172 162 149 115 105 229 206 205 263 220 225 162 197 191 218 320 325 152 130 115 126 328 123 177 100 196 132 110 34 306 191 219 213 234 246 32 205
330 326 320 316 188 162 163 175 183 186 197 341 141 135 139 203 283 266 221 196 176 135 273 186 49 275 210 135 333 142 127 177 157 107 44 9 214 70 112 63 161 188 204 214 170 130 207
331 326 321 313 199 162 167 176 185 189 197 222 215 158 166 176 214 211 248 215 182 157 237 189 194 252 212 153 146 123 109 139 174 113 71 12 320 83 262 16 45 352 196 220 219 211 195
332 324 319 308 198 166 169 178 184 183 177 254 158 146 144 174 148 185 199 222 186 149 166 175 265 184 181 62 25 158 143 172 179 155 173 186 227 81 314 117 320 268 266 258 242 234 237
326 320 324 289 179 167 172 179 183 177 175 196 80 80 204 130 166 182 189 195 193 134 51 40 138 152 184 94 359 345 29 9 130 154 197 166 130 135 225 99 260 282 222 219 227 234 229
325 316 327 327 198 169 173 182 183 182 196 71 196 135 189 161 189 203 175 135 143 127 155 101 303 303 68 262 246 248 78 67 108 42 190 174 137 123 184 294 256 225 61 26 198 224 232
318 313 314 304 306 187 175 183 186 185 195 40 75 143 184 127 170 84 145 142 102 137 92 112 47 32 286 246 150 133 149 163 142 146 211 195 137 197 159 207 268 161 205 140 175 190 107
315 316 306 290 264 179 181 181 192 187 179 108 71 43 32 119 65 333 170 150 160 144 137 100 79 300 250 240 229 173 190 197 156 133 324 309 276 243 191 278 279 131 124 80 96 153 67
318 317 309 242 167 164 176 185 191 185 176 108 71 18 48 100 14 342 100 173 4 96 100 119 134 114 339 159 211 205 177 22 160 180 160 168 243 210 234 239 297 144 138 146 129 193 52
315 313 313 155 158 161 168 177 177 168 164 115 107 296 59 83 34 35 15 67 27 356 132 125 127 355 32 202 195 267 179 206 60 104 161 171 170 189 193 214 266 75 63 29 60 60 52
305 310 314 190 164 159 160 167 161 159 158 160 105 90 63 72 90 92 72 47 36 25 2 46 81 36 49 102 265 245 256 100 246 173 355 232 156 202 205 183 104 63 105 83 60 48 10